Lid_Strength_Index
4 4 3 2 3 3 3 3 3 3 2 2 2 3 3 3 5 3 2 2 3 7 6 4 4 7 7 7 11 8 9 9 12 12 14 14 16 14 13 11 13 16 16 18 15 16 19 7 8 12 10 7 7 8
4 4 4 3 3 3 3 3 3 3 3 2 3 3 2 3 3 4 3 1 1 4 6 3 4 3 4 5 6 6 8 8 8 11 13 13 13 12 13 16 9 14 12 14 13 14 9 7 8 7 6 7 8 8
4 4 4 3 3 3 3 3 3 3 3 2 2 3 3 3 3 4 2 2 3 7 5 5 6 3 2 3 2 7 7 5 7 6 9 10 15 11 16 14 14 9 7 12 11 9 8 7 6 6 6 7 7 6
5 4 4 4 4 3 3 4 3 3 3 3 2 3 3 3 4 4 2 2 3 5 12 7 3 4 2 2 3 3 4 4 5 8 11 12 14 8 13 11 13 9 8 9 11 8 8 7 6 6 7 6 6 6
5 5 5 5 4 4 3 4 4 3 3 4 4 4 3 3 4 1 1 1 2 5 10 11 4 3 2 3 3 3 4 5 8 12 13 13 12 10 13 12 13 8 9 12 13 8 8 8 6 5 6 6 7 7
5 5 5 5 4 3 4 4 4 4 5 4 4 3 3 3 4 2 5 2 3 2 7 11 5 5 3 3 4 5 4 5 6 9 12 9 6 9 13 14 8 6 5 6 8 6 6 6 6 6 6 6 7 9
5 6 6 6 5 4 3 3 4 4 5 4 3 3 2 3 3 5 5 4 4 3 9 11 9 6 5 4 6 5 5 7 7 9 11 12 10 8 13 14 8 6 6 6 5 6 7 7 8 6 7 8 8 10
5 5 6 6 5 5 5 4 3 3 3 4 3 3 3 4 4 4 3 3 4 4 7 10 10 11 5 11 11 7 11 8 7 9 10 11 10 11 13 8 7 6 6 6 6 6 7 7 7 8 8 10 11 12
6 5 5 6 5 5 5 5 4 3 3 3 3 3 2 3 6 4 4 4 2 4 10 12 13 13 7 9 10 10 8 12 8 12 11 9 12 12 9 8 7 7 7 7 7 7 7 7 7 10 11 11 12 12
6 6 6 5 6 6 5 5 5 4 4 4 4 5 9 7 4 3 3 7 8 9 8 11 9 11 8 11 12 11 12 12 13 12 10 13 12 9 7 7 6 7 6 6 8 9 9 11 11 12 12 11 11 12
5 5 5 5 6 5 5 5 5 5 5 6 10 12 8 5 6 9 11 11 10 12 10 10 10 10 8 12 12 11 12 12 13 13 12 13 13 10 8 8 7 7 7 8 9 10 10 11 11 11 12 12 12 13
4 5 5 5 6 5 5 5 5 6 7 7 8 7 8 10 12 11 12 13 13 13 12 12 12 10 11 8 12 12 12 13 14 11 13 15 13 9 9 8 8 10 10 10 10 10 10 10 10 12 12 12 12 12
3 4 4 4 5 6 5 5 6 6 6 8 10 12 11 13 14 14 15 14 14 13 13 13 13 13 12 11 13 13 13 14 12 14 16 15 10 9 9 10 12 11 12 12 11 10 10 10 11 12 13 12 14 11
2 3 3 3 3 5 5 5 5 5 7 12 12 14 13 14 14 14 14 13 13 13 13 13 13 13 13 13 13 14 14 14 15 18 19 13 10 9 10 11 12 13 14 13 13 12 13 12 12 13 13 13 15 12
2 2 2 3 3 3 4 4 4 5 9 12 12 14 14 13 13 13 13 13 13 12 12 13 13 12 14 14 14 14 16 16 15 15 14 12 11 11 12 12 13 13 15 13 12 12 14 14 13 11 11 11 10 12
2 1 2 2 2 3 3 3 5 6 10 10 11 13 12 12 13 13 13 13 11 12 12 12 13 13 14 14 15 15 15 16 14 13 12 12 12 12 11 11 12 11 12 11 12 11 11 13 14 10 10 10 11 10
2 3 2 2 2 2 2 4 6 9 11 10 11 9 10 11 12 12 11 12 10 12 13 12 14 15 14 15 15 13 14 13 12 12 12 11 11 11 11 11 12 11 11 10 10 10 10 10 11 11 10 7 8 7
3 2 2 2 2 3 4 4 9 9 11 9 10 10 9 9 10 10 10 10 10 11 12 13 12 14 15 16 15 12 12 12 12 11 11 10 10 10 9 10 9 10 10 10 10 9 9 10 9 8 7 6 7 7
2 2 2 2 2 5 7 8 7 10 9 10 9 9 9 9 9 9 9 9 9 9 10 12 13 14 14 13 12 12 11 12 12 11 10 10 10 10 10 9 9 9 9 8 8 9 8 7 7 7 7 7 7 7
3 3 3 3 3 7 9 10 7 10 9 10 9 9 10 10 9 9 8 8 8 9 12 13 13 12 12 11 10 10 10 10 10 11 10 9 8 8 8 8 8 7 8 7 7 9 8 8 7 7 7 8 10 9
3 4 3 3 6 5 9 8 8 10 9 9 9 9 10 9 9 9 9 8 9 12 12 10 11 9 7 8 8 9 8 7 8 9 10 9 8 8 8 8 7 8 8 9 10 8 9 7 6 6 6 6 5 5
5 4 7 6 8 8 10 9 8 9 9 9 9 8 10 11 10 10 9 11 12 11 9 9 8 8 8 7 7 7 7 7 7 8 9 9 9 9 8 8 9 10 9 8 7 6 7 6 7 8 6 5 5 5
5 6 7 8 9 9 11 8 9 8 11 10 9 10 11 11 10 10 11 10 10 8 8 7 6 6 7 7 7 7 7 7 8 7 7 7 8 8 8 7 8 8 7 7 7 7 7 7 7 9 7 6 6 6
5 7 8 8 8 10 8 9 10 11 11 10 11 12 12 10 12 13 15 13 10 8 8 7 8 9 8 7 8 8 8 7 8 8 7 8 8 8 8 8 7 7 7 7 7 7 6 6 8 8 6 7 6 9
9 9 8 10 8 10 13 11 11 13 16 15 16 16 13 14 17 17 16 10 10 9 9 9 8 8 9 10 9 9 9 9 10 11 10 10 11 11 10 9 9 9 9 10 9 9 9 8 7 7 7 7 8 9
11 10 10 10 11 12 12 14 12 13 15 15 15 13 14 16 18 18 11 10 10 10 10 10 11 10 10 9 10 11 10 10 11 12 11 10 10 11 13 13 14 13 12 11 12 12 12 11 10 9 8 8 8 8
11 11 10 8 8 9 10 10 10 11 14 15 15 16 17 19 19 12 10 10 10 10 8 9 9 10 10 10 10 10 10 11 13 11 11 9 10 11 13 14 15 14 13 13 13 13 13 12 11 11 10 9 8 8
10 9 12 10 10 10 12 13 14 15 14 11 13 18 18 18 14 12 11 10 10 9 9 10 10 11 10 10 10 13 16 16 15 14 14 11 13 15 15 15 14 14 16 15 15 14 14 13 12 11 10 10 9 10
10 8 11 15 14 13 13 13 13 10 9 11 15 15 13 12 13 12 12 11 11 11 13 12 14 15 15 15 13 13 17 19 19 21 23 23 19 19 16 16 16 17 17 16 15 14 14 13 11 12 11 10 10 13
10 8 13 14 16 14 10 9 8 8 10 9 10 12 13 14 14 13 13 14 15 15 14 13 14 19 20 20 20 19 15 17 21 21 23 23 19 18 17 17 18 18 17 17 18 17 15 13 12 11 12 13 12 14
9 9 10 11 10 9 8 8 8 8 8 8 8 11 15 17 17 16 15 14 14 18 18 19 20 20 21 21 19 20 22 22 20 17 20 21 19 23 21 19 19 18 17 19 19 19 18 14 13 13 15 15 15 16
9 10 10 12 11 9 8 9 9 9 12 9 10 11 14 14 19 18 19 17 19 20 20 21 22 20 21 18 21 21 15 19 20 21 19 18 20 20 19 20 19 18 18 22 20 19 18 15 15 16 16 17 17 18
11 13 13 15 16 15 10 15 15 15 15 16 13 14 17 19 21 19 16 16 20 21 22 22 22 22 17 20 23 19 21 22 21 15 16 16 18 20 21 19 18 18 21 21 20 18 17 17 18 18 19 19 20 20